[[{"header":{"parameterUnit":"m.s-1","parameterCategory":1,"la1":30.2991,"la2":30.254,"lo1":-89.0895,"lo2":-89.0444,"dy":0.0017,"dx":0.0017,"nx":28,"ny":28,"refTime":"2024-05-23T09:00:00:Z","depth":0,"parameterNumber":2,"parameterNumberName":"U-component_of_WINDS"},"data":[0,0,0,0,0,0,0,0,0,0,0,0,0,0,0,0,0,0,0,0,0,0,0,0,0,0,0,0,0,0,0,0,0,0,0,0,0,0,0,0,0,0,0,0,0,0,0,0,0,0,0,0,0,0,0,0,0,0,1.5794,1.5795,0,1.5812,1.5813,1.5813,1.5824,1.5824,1.5824,1.5824,1.5841,1.5841,1.5841,0,0,0,0,0,0,0,0,0,0,0,0,0,1.5767,1.5767,1.5794,1.5795,1.5795,1.5812,1.5813,1.5813,1.5824,1.5824,1.5824,1.5824,1.5841,1.5841,1.5842,0,0,0,0,0,0,0,0,0,0,0,0,0,1.5781,1.5767,1.5794,1.5802,1.5803,1.5812,1.5813,1.5813,1.5824,1.5824,1.5824,1.5824,1.584,1.5841,1.5842,1.5844,0,0,1.5843,1.5844,0,0,0,0,0,0,0,0,1.578,1.5782,1.5801,1.5802,1.5803,1.5816,1.5809,1.5823,1.5824,1.5816,1.5824,1.5824,1.5832,1.5834,1.5837,1.5845,1.5845,1.5843,1.5844,1.5844,1.5844,0,0,0,0,0,0,0,1.5779,1.5781,1.5802,1.5801,1.5802,1.5804,1.5806,1.5812,1.5823,1.5816,1.5817,1.5819,1.5833,1.5836,1.5837,1.5846,1.5843,1.5844,1.5844,1.5845,1.5855,1.5855,0,0,0,0,0,0,1.5777,1.5781,1.5801,1.5802,1.5792,1.5805,1.5807,1.5812,1.5823,1.5825,1.5819,1.582,1.5835,1.5836,1.5838,1.584,1.5844,1.5845,1.5845,1.5855,1.5855,1.5855,0,0,0,0,0,0,1.5777,1.5779,1.58,1.5792,1.5794,1.5805,1.581,1.5812,1.5815,1.5825,1.5827,1.5821,1.5835,1.5837,1.5842,1.5841,1.5845,1.5845,1.5855,1.5855,1.5855,1.5846,0,0,0,0,0,0,1.5776,1.5779,1.578,1.5792,1.5795,1.5805,1.581,1.5812,1.5816,1.5817,1.5827,1.5829,1.5835,1.5841,1.5843,1.5842,1.5846,1.5855,1.5855,1.5855,1.5846,1.5846,1.5845,0,0,0,0,0,1.5775,1.5777,1.5781,1.5783,1.5797,1.5805,1.5807,1.5814,1.5816,1.5818,1.5824,1.5829,1.5841,1.5841,1.5843,1.5843,1.5855,1.5855,1.5855,1.5847,1.5846,1.5845,0,0,0,0,0,0,1.5766,1.5779,1.5783,1.5789,1.5796,1.5807,1.5809,1.5813,1.5819,1.582,1.5828,1.583,1.5834,1.5839,1.584,1.5845,1.5848,1.5849,1.5842,1.5841,1.584,1.5839,1.5846,0,0,0,0,0,1.5765,1.577,1.5781,1.5786,1.5789,1.5798,1.5802,1.5807,1.5814,1.5817,1.5824,1.583,1.5835,1.5838,1.5844,1.5847,1.5849,1.5848,1.5847,1.5846,1.5846,1.5847,1.5847,1.5854,1.5854,1.5854,0,0,1.5762,1.577,1.5773,1.5784,1.579,1.5795,1.58,1.5806,1.5809,1.5817,1.5823,1.5828,1.5835,1.5839,1.5841,1.5843,1.5844,1.5846,1.5845,1.5846,1.5847,1.5846,1.5846,1.5854,1.5854,1.5854,0,0,1.576,1.5767,1.5771,1.5776,1.5785,1.5791,1.5792,1.5802,1.5805,1.5811,1.5817,1.582,1.5829,1.5834,1.5838,1.5836,1.584,1.5837,1.5833,1.5834,1.5834,1.5833,1.5832,1.5831,1.5837,1.5837,1.5837,0,1.5755,1.5764,1.5772,1.5777,1.5781,1.5788,1.5792,1.5797,1.5806,1.5809,1.5811,1.5822,1.5827,1.5832,1.5831,1.5834,1.5835,1.5836,1.5833,1.5833,1.5832,1.5831,1.5831,1.5837,1.5837,1.5837,1.5837,0,1.5757,1.5763,1.5765,1.5774,1.5778,1.5782,1.579,1.5793,1.5798,1.5803,1.5808,1.5815,1.5821,1.5822,1.5827,1.5827,1.5828,1.5832,1.5835,1.5831,1.583,1.583,1.5836,1.5836,1.5836,1.5836,0,0,1.5751,1.5764,1.5765,1.5768,1.5778,1.5782,1.5785,1.5792,1.5794,1.58,1.5803,1.581,1.5812,1.5816,1.5821,1.5822,1.5819,1.5825,1.5826,1.5824,1.5819,1.5816,1.5816,1.5822,1.5822,1.5822,1.5818,0,1.575,1.5758,1.5764,1.5769,1.5774,1.578,1.5783,1.5789,1.5793,1.5797,1.5802,1.5807,1.5811,1.5813,1.5814,1.5819,1.5818,1.582,1.5824,1.5824,1.5822,1.5815,1.5813,1.5809,1.5818,1.5818,1.5818,0,1.575,1.5756,1.5761,1.5769,1.5771,1.5774,1.5779,1.5783,1.5789,1.5792,1.5796,1.5801,1.5804,1.5807,1.5811,1.5812,1.5814,1.5817,1.5817,1.5817,1.5821,1.5816,1.5809,1.5808,1.5818,1.5818,1.5818,0,1.5744,1.5753,1.5757,1.576,1.577,1.5771,1.5775,1.5781,1.5784,1.5789,1.5791,1.5796,1.5798,1.5802,1.5807,1.5809,1.581,1.5814,1.5813,1.5812,1.5813,1.5813,1.5806,1.5814,1.5814,1.5814,1.5814,0,1.5742,1.5745,1.5754,1.5757,1.576,1.5767,1.5769,1.5774,1.5779,1.5781,1.5787,1.579,1.5797,1.58,1.5804,1.5807,1.5808,1.581,1.5811,1.5809,1.5809,1.5811,1.5811,1.5814,1.5814,1.5814,1.5814,0,1.5737,1.5743,1.5748,1.5756,1.5758,1.5759,1.5766,1.5768,1.5773,1.5776,1.5777,1.5784,1.5788,1.5794,1.5799,1.5802,1.5803,1.5805,1.5801,1.5802,1.58,1.58,1.5794,1.5793,1.5802,1.5802,1.5802,0,1.5735,1.5737,1.5745,1.5748,1.5751,1.5755,1.5758,1.5764,1.5767,1.5773,1.5774,1.5778,1.5782,1.5787,1.5793,1.5797,1.5799,1.5796,1.5799,1.5797,1.5798,1.5798,1.5798,1.5795,1.5795,1.5795,1.5795,0,1.5731,1.5734,1.5738,1.5743,1.5746,1.575,1.5755,1.5756,1.5763,1.5766,1.577,1.5772,1.5778,1.5781,1.5786,1.5789,1.5793,1.5794,1.5794,1.5792,1.5789,1.579,1.5799,1.5794,1.5794,1.5794,1.5794,1.5794,1.5727,1.5729,1.5735,1.5739,1.5742,1.5746,1.5748,1.5753,1.5756,1.5761,1.5764,1.5768,1.5772,1.5778,1.5781,1.5784,1.5786,1.5785,1.5785,1.5785,1.5784,1.5789,1.5784,1.5785,1.5785,1.5785,1.5785,0,1.5723,1.5727,1.5731,1.5736,1.5739,1.5742,1.5747,1.5749,1.5752,1.5756,1.5759,1.5763,1.5766,1.5771,1.5775,1.5776,1.5777,1.5776,1.5776,1.5777,1.5783,1.5782,1.5775,1.5775,1.5775,1.5775,1.5775,1.5775,1.5722,1.5725,1.5728,1.5732,1.5736,1.5739,1.5741,1.5744,1.5747,1.5751,1.5754,1.5757,1.5761,1.5765,1.5768,1.5769,1.577,1.5768,1.577,1.5775,1.5776,1.5777,1.5777,1.5768,1.5768,1.5764,1.5764,1.5764]},{"header":{"parameterUnit":"m.s-1","parameterCategory":1,"la1":30.2991,"la2":30.254,"lo1":-89.0895,"lo2":-89.0444,"dy":0.0017,"dx":0.0017,"nx":28,"ny":28,"refTime":"2024-05-23T09:00:00:Z","depth":0,"parameterNumber":3,"parameterNumberName":"V-component_of_WINDS"},"data":[0,0,0,0,0,0,0,0,0,0,0,0,0,0,0,0,0,0,0,0,0,0,0,0,0,0,0,0,0,0,0,0,0,0,0,0,0,0,0,0,0,0,0,0,0,0,0,0,0,0,0,0,0,0,0,0,0,0,4.3939,4.394,0,4.3961,4.3961,4.3961,4.3904,4.3902,4.39,4.3899,4.3918,4.392,4.3922,0,0,0,0,0,0,0,0,0,0,0,0,0,4.3845,4.3847,4.3939,4.394,4.394,4.3961,4.3961,4.3961,4.3904,4.3902,4.39,4.3898,4.3917,4.3919,4.3922,0,0,0,0,0,0,0,0,0,0,0,0,0,4.3878,4.3848,4.3939,4.3914,4.3912,4.3961,4.3961,4.3962,4.3905,4.3902,4.3899,4.3897,4.3916,4.3919,4.3922,4.3996,0,0,4.3932,4.3934,0,0,0,0,0,0,0,0,4.3876,4.3882,4.3918,4.3916,4.3914,4.3927,4.3935,4.3973,4.3905,4.3907,4.3899,4.3896,4.3923,4.3925,4.3935,4.3997,4.3997,4.3933,4.3934,4.3936,4.3937,0,0,0,0,0,0,0,4.3874,4.388,4.3948,4.3918,4.3916,4.39,4.3902,4.3942,4.393,4.3907,4.3903,4.3906,4.3921,4.3932,4.3935,4.3998,4.3932,4.3935,4.3937,4.3939,4.4119,4.4122,0,0,0,0,0,0,4.3876,4.3879,4.3947,4.3948,4.3888,4.3904,4.3906,4.3925,4.3929,4.3927,4.3909,4.3904,4.3928,4.3931,4.3935,4.4021,4.3936,4.3939,4.3941,4.4116,4.412,4.4123,0,0,0,0,0,0,4.3874,4.3882,4.3946,4.3913,4.392,4.3909,4.3931,4.3927,4.3938,4.393,4.3928,4.3922,4.3926,4.3931,4.3981,4.4021,4.394,4.3943,4.4113,4.4117,4.4121,4.4193,0,0,0,0,0,0,4.3871,4.3882,4.3911,4.3914,4.3922,4.3993,4.3933,4.393,4.3944,4.3938,4.3942,4.3941,4.3924,4.3977,4.3984,4.4024,4.3946,4.4109,4.4115,4.412,4.4187,4.4199,4.421,0,0,0,0,0,4.3868,4.3929,4.3912,4.3921,4.3958,4.3995,4.4,4.3981,4.3948,4.3976,4.3971,4.394,4.4015,4.3982,4.399,4.4031,4.4107,4.4113,4.412,4.4182,4.4197,4.4209,0,0,0,0,0,0,4.393,4.3929,4.391,4.3975,4.3986,4.3986,4.4021,4.3997,4.4016,4.401,4.3984,4.3985,4.404,4.4041,4.4004,4.4102,4.4055,4.4064,4.41,4.4114,4.4125,4.4123,4.3948,0,0,0,0,0,4.3952,4.3984,4.3981,4.4038,4.4044,4.4032,4.4047,4.4032,4.4041,4.4045,4.4044,4.4054,4.4079,4.4096,4.412,4.4187,4.4186,4.4219,4.423,4.424,4.4247,4.4282,4.4296,4.4144,4.4144,4.4144,0,0,4.3996,4.3999,4.4021,4.405,4.4057,4.4089,4.4036,4.4073,4.4096,4.4051,4.4098,4.4097,4.4106,4.4165,4.4191,4.4167,4.4289,4.4248,4.4255,4.4258,4.429,4.4304,4.4317,4.4148,4.4148,4.4147,0,0,4.4093,4.4099,4.4147,4.4155,4.4166,4.4157,4.4168,4.4172,4.417,4.4218,4.4184,4.4211,4.4256,4.4263,4.4273,4.4372,4.4345,4.4381,4.4439,4.4474,4.4486,4.4496,4.4531,4.4544,4.4388,4.4388,4.4388,0,4.4146,4.4195,4.4174,4.4214,4.4227,4.4188,4.4236,4.4244,4.4261,4.4271,4.4244,4.43,4.4303,4.4363,4.4387,4.4396,4.4408,4.438,4.4486,4.4496,4.4505,4.4538,4.4552,4.4392,4.4392,4.4392,4.4391,0,4.4259,4.4293,4.4331,4.435,4.4367,4.441,4.4395,4.4415,4.4398,4.4391,4.4439,4.4442,4.4465,4.4478,4.4461,4.4535,4.452,4.449,4.4443,4.4525,4.4555,4.4567,4.4398,4.4397,4.4396,4.4395,0,0,4.4396,4.4403,4.4417,4.4425,4.4434,4.4459,4.45,4.4523,4.4541,4.4554,4.4587,4.4625,4.4598,4.4609,4.4592,4.4622,4.47,4.4588,4.4588,4.4609,4.4781,4.4804,4.4819,4.4682,4.4685,4.4686,4.478,0,4.4491,4.4563,4.4545,4.4615,4.4646,4.4609,4.4645,4.4653,4.4648,4.4673,4.4666,4.4694,4.4656,4.4662,4.4691,4.4685,4.4734,4.4678,4.4712,4.4713,4.471,4.4835,4.4858,4.4947,4.4792,4.4794,4.4796,0,4.4612,4.4631,4.4705,4.4708,4.472,4.4753,4.4772,4.4796,4.4805,4.4799,4.4812,4.4789,4.4828,4.478,4.4833,4.4795,4.4808,4.4807,4.481,4.4812,4.4759,4.484,4.4975,4.4988,4.4814,4.4813,4.4812,0,4.4704,4.4748,4.4797,4.4805,4.481,4.4834,4.4837,4.4843,4.4858,4.4875,4.4884,4.4904,4.4916,4.4932,4.4915,4.4882,4.497,4.4921,4.4965,4.4966,4.4985,4.4984,4.5124,4.4994,4.4994,4.4994,4.4994,0,4.4812,4.4858,4.4838,4.4869,4.4919,4.4898,4.4948,4.4947,4.4952,4.4981,4.495,4.4977,4.4954,4.4978,4.4965,4.5011,4.5016,4.5012,4.5007,4.5014,4.5015,4.5022,4.5015,4.4997,4.4997,4.4996,4.4995,0,4.4923,4.4912,4.4963,4.4964,4.4965,4.5003,4.5003,4.503,4.5023,4.5059,4.5067,4.5055,4.5083,4.5068,4.5096,4.5087,4.5146,4.5133,4.5143,4.514,4.5185,4.518,4.5334,4.5352,4.5211,4.5212,4.5213,0,4.4993,4.5027,4.5032,4.505,4.5055,4.5084,4.5099,4.5079,4.5096,4.5108,4.5134,4.5159,4.5178,4.5224,4.5217,4.5238,4.5226,4.5278,4.5229,4.5234,4.5226,4.5224,4.5227,4.5288,4.529,4.5291,4.5292,0,4.5117,4.511,4.5133,4.5155,4.5174,4.519,4.5203,4.5219,4.5199,4.5219,4.5248,4.5263,4.5292,4.5317,4.5335,4.5337,4.5311,4.5308,4.5319,4.5326,4.533,4.5328,4.517,4.5304,4.5303,4.5302,4.5301,4.5301,4.5209,4.5238,4.5246,4.5273,4.5281,4.5294,4.532,4.5316,4.534,4.5362,4.5349,4.5382,4.5389,4.5411,4.5416,4.5441,4.542,4.5436,4.544,4.5444,4.545,4.5327,4.5444,4.5444,4.5443,4.5443,4.5443,0,4.5331,4.5335,4.536,4.538,4.5401,4.5376,4.5389,4.5408,4.5438,4.5447,4.5466,4.5498,4.5523,4.5518,4.5539,4.556,4.5549,4.5567,4.5565,4.5565,4.5468,4.5456,4.5575,4.5575,4.5575,4.5575,4.5575,4.5575,4.5398,4.5445,4.5439,4.549,4.5492,4.5525,4.5535,4.5546,4.5553,4.5591,4.5611,4.5608,4.5611,4.5633,4.5653,4.5651,4.566,4.5682,4.5676,4.5585,4.5572,4.556,4.5548,4.5685,4.5685,4.5771,4.5772,4.5772]}]]